Total_Precipitation_Accumulation
0.00 0.00 0.01 0.01 0.00 0.01 0.12 0.28 0.22 0.34 0.31 0.30 0.25 0.42 0.45 0.31 0.19 0.13 0.07 0.16 0.21 0.16
0.08 0.01 0.00 0.03 0.02 0.03 0.07 0.46 0.59 0.35 0.38 0.69 0.50 0.30 0.22 0.20 0.17 0.24 0.11 0.22 0.24 0.18
0.21 0.15 0.08 0.01 0.01 0.01 0.18 0.44 0.59 0.59 0.63 0.60 0.45 0.29 0.25 0.22 0.28 0.22 0.17 0.20 0.12 0.09
0.06 0.17 0.17 0.10 0.09 0.07 0.19 0.47 0.71 0.83 0.81 0.94 0.73 0.59 0.46 0.31 0.32 0.21 0.13 0.18 0.11 0.06
0.05 0.06 0.10 0.08 0.13 0.15 0.15 0.41 1.05 1.62 1.57 1.25 1.04 0.77 0.56 0.29 0.26 0.19 0.07 0.11 0.16 0.13
0.10 0.05 0.03 0.05 0.13 0.19 0.24 0.47 0.52 0.87 0.94 0.57 0.51 0.44 0.45 0.44 0.26 0.16 0.08 0.08 0.13 0.28
0.07 0.05 0.07 0.05 0.02 0.03 0.08 0.04 0.09 0.18 0.29 0.31 0.27 0.25 0.25 0.22 0.16 0.14 0.13 0.04 0.08 0.26
0.10 0.09 0.06 0.05 0.03 0.01 0.06 0.12 0.16 0.38 0.51 0.29 0.17 0.03 0.04 0.05 0.07 0.06 0.06 0.03 0.07 0.09
0.06 0.07 0.07 0.10 0.08 0.07 0.04 0.09 0.07 0.11 0.10 0.09 0.05 0.03 0.07 0.04 0.03 0.04 0.07 0.08 0.07 0.10
0.09 0.12 0.12 0.08 0.07 0.02 0.05 0.03 0.03 0.01 0.03 0.06 0.06 0.05 0.03 0.03 0.01 0.01 0.06 0.14 0.17 0.14
0.07 0.08 0.22 0.23 0.11 0.04 0.05 0.06 0.04 0.06 0.02 0.01 0.04 0.01 0.00 0.00 0.00 0.00 0.02 0.04 0.07 0.10
0.12 0.13 0.21 0.28 0.17 0.13 0.08 0.01 0.01 0.00 0.00 0.00 0.00 0.00 0.00 0.00 0.00 0.02 0.02 0.02 0.01 0.04
0.09 0.13 0.13 0.16 0.17 0.13 0.09 0.03 0.01 0.00 0.00 0.01 0.00 0.00 0.00 0.00 0.00 0.01 0.00 0.02 0.01 0.06
0.06 0.06 0.11 0.08 0.04 0.05 0.06 0.01 0.03 0.00 0.00 0.00 0.00 0.00 0.00 0.00 0.00 0.00 0.00 0.00 0.00 0.00